Location: Belvedere Heights
(33.9836°N, 117.3109°W)
Time: 09:30:16
(UTC+00:00)

DMSP B5D2-2 - Pass Details

Date: 21 March 2023
Orbit: 789 x 804 km, 98.3° (Epoch: 01 June)

Event Time Altitude Azimuth Distance (km) Brightness Sun altitude
Rises 12:28:37 0° 159° (SSE) 3,293 7.4 -17.9°
Reaches altitude 10° 12:30:57 10° 156° (SSE) 2,364 6.7 -17.5°
Maximum altitude 12:36:08 67° 75° (ENE) 862 4.5 -16.4°
Drops below altitude 10° 12:41:19 10° 354° (N) 2,369 6.6 -15.3°
Sets 12:43:40 0° 351° (N) 3,300 7.3 -14.9°
